Year,Month,Day,Hour,Minute,Value (Times are PST for temperature in C)
2006,07,20,00,00,14.30
2006,07,20,00,01,14.30
2006,07,20,00,02,14.30
2006,07,20,00,03,14.30
2006,07,20,00,04,14.30
2006,07,20,00,05,14.30
2006,07,20,00,06,14.30
2006,07,20,00,07,14.30
2006,07,20,00,08,14.20
2006,07,20,00,09,14.20
2006,07,20,00,10,14.20
2006,07,20,00,11,14.20
2006,07,20,00,12,14.20
2006,07,20,00,13,14.20
2006,07,20,00,14,14.20
2006,07,20,00,15,14.20
2006,07,20,00,16,14.20
2006,07,20,00,17,14.20
2006,07,20,00,18,14.20
2006,07,20,00,19,14.20
2006,07,20,00,20,14.20
2006,07,20,00,21,14.20
2006,07,20,00,22,14.20
2006,07,20,00,23,14.20
2006,07,20,00,24,14.20
2006,07,20,00,25,14.30
2006,07,20,00,26,14.30
2006,07,20,00,27,14.30
2006,07,20,00,28,14.30
2006,07,20,00,29,14.30
2006,07,20,00,30,14.30
2006,07,20,00,31,14.30
2006,07,20,00,32,14.30
2006,07,20,00,33,14.30
2006,07,20,00,34,14.30
2006,07,20,00,35,14.30
2006,07,20,00,36,14.30
2006,07,20,00,37,14.40
2006,07,20,00,38,14.40
2006,07,20,00,39,14.40
2006,07,20,00,40,14.40
2006,07,20,00,41,14.40
2006,07,20,00,42,14.40
2006,07,20,00,43,14.40
2006,07,20,00,44,14.40
2006,07,20,00,45,14.40
2006,07,20,00,46,14.40
2006,07,20,00,47,14.40
2006,07,20,00,48,14.40
2006,07,20,00,49,14.40
2006,07,20,00,50,14.40
2006,07,20,00,51,14.40
2006,07,20,00,52,14.30
2006,07,20,00,53,14.30
2006,07,20,00,54,14.30
2006,07,20,00,55,14.30
2006,07,20,00,56,14.30
2006,07,20,00,57,14.40
2006,07,20,00,58,14.40
2006,07,20,00,59,14.40
2006,07,20,01,00,14.40
2006,07,20,01,01,14.40
2006,07,20,01,02,14.40
2006,07,20,01,03,14.50
2006,07,20,01,04,14.50
2006,07,20,01,05,14.50
2006,07,20,01,06,14.50
2006,07,20,01,07,14.60
2006,07,20,01,08,14.60
2006,07,20,01,09,14.60
2006,07,20,01,10,14.60
2006,07,20,01,11,14.60
2006,07,20,01,12,14.60
2006,07,20,01,13,14.60
2006,07,20,01,14,14.70
2006,07,20,01,15,14.70
2006,07,20,01,16,14.70
2006,07,20,01,17,14.70
2006,07,20,01,18,14.70
2006,07,20,01,19,14.70
2006,07,20,01,20,14.70
2006,07,20,01,21,14.80
2006,07,20,01,22,14.80
2006,07,20,01,23,14.80
2006,07,20,01,24,14.80
2006,07,20,01,25,14.80
2006,07,20,01,26,14.80
2006,07,20,01,27,14.80
2006,07,20,01,28,14.80
2006,07,20,01,29,14.80
2006,07,20,01,30,14.80
2006,07,20,01,31,14.80
2006,07,20,01,32,14.80
2006,07,20,01,33,14.80
2006,07,20,01,34,14.80
2006,07,20,01,35,14.80
2006,07,20,01,36,14.80
2006,07,20,01,37,14.80
2006,07,20,01,38,14.80
2006,07,20,01,39,14.70
2006,07,20,01,40,14.70
2006,07,20,01,41,14.60
2006,07,20,01,42,14.60
2006,07,20,01,43,14.60
2006,07,20,01,44,14.50
2006,07,20,01,45,14.50
2006,07,20,01,46,14.50
2006,07,20,01,47,14.50
2006,07,20,01,48,14.50
2006,07,20,01,49,14.50
2006,07,20,01,50,14.50
2006,07,20,01,51,14.60
2006,07,20,01,52,14.60
2006,07,20,01,53,14.60
2006,07,20,01,54,14.60
2006,07,20,01,55,14.70
2006,07,20,01,56,14.80
2006,07,20,01,57,14.80
2006,07,20,01,58,14.80
2006,07,20,01,59,14.80
2006,07,20,02,00,14.80
2006,07,20,02,01,14.80
2006,07,20,02,02,14.70
2006,07,20,02,03,14.70
2006,07,20,02,04,14.70
2006,07,20,02,05,14.70
2006,07,20,02,06,14.40
2006,07,20,02,07,14.20
2006,07,20,02,08,14.20
2006,07,20,02,09,14.10
2006,07,20,02,10,14.10
2006,07,20,02,11,14.00
2006,07,20,02,12,13.90
2006,07,20,02,13,13.90
2006,07,20,02,14,13.80
2006,07,20,02,15,13.80
2006,07,20,02,16,13.70
2006,07,20,02,17,13.70
2006,07,20,02,18,13.70
2006,07,20,02,19,13.70
2006,07,20,02,20,13.60
2006,07,20,02,21,13.60
2006,07,20,02,22,13.60
2006,07,20,02,23,13.60
2006,07,20,02,24,13.60
2006,07,20,02,25,13.60
2006,07,20,02,26,13.50
2006,07,20,02,27,13.50
2006,07,20,02,28,13.50
2006,07,20,02,29,13.50
2006,07,20,02,30,13.50
2006,07,20,02,31,13.50
2006,07,20,02,32,13.50
2006,07,20,02,33,13.50
2006,07,20,02,34,13.50
2006,07,20,02,35,13.50
2006,07,20,02,36,13.40
2006,07,20,02,37,13.40
2006,07,20,02,38,13.40
2006,07,20,02,39,13.30
2006,07,20,02,40,13.30
2006,07,20,02,41,13.30
2006,07,20,02,42,13.30
2006,07,20,02,43,13.30
2006,07,20,02,44,13.30
2006,07,20,02,45,13.30
2006,07,20,02,46,13.30
2006,07,20,02,47,13.20
2006,07,20,02,48,13.20
2006,07,20,02,49,13.20
2006,07,20,02,50,13.20
2006,07,20,02,51,13.20
2006,07,20,02,52,13.20
2006,07,20,02,53,13.10
2006,07,20,02,54,13.10
2006,07,20,02,55,13.10
2006,07,20,02,56,13.20
2006,07,20,02,57,13.20
2006,07,20,02,58,13.20
2006,07,20,02,59,13.20
2006,07,20,03,00,13.20
2006,07,20,03,01,13.20
2006,07,20,03,02,13.20
2006,07,20,03,03,13.20
2006,07,20,03,04,13.20
2006,07,20,03,05,13.20
2006,07,20,03,06,13.20
2006,07,20,03,07,13.20
2006,07,20,03,08,13.20
2006,07,20,03,09,13.20
2006,07,20,03,10,13.20
2006,07,20,03,11,13.20
2006,07,20,03,12,13.20
2006,07,20,03,13,13.20
2006,07,20,03,14,13.20
2006,07,20,03,15,13.20
2006,07,20,03,16,13.20
2006,07,20,03,17,13.20
2006,07,20,03,18,13.20
2006,07,20,03,19,13.20
2006,07,20,03,20,13.20
2006,07,20,03,21,13.20
2006,07,20,03,22,13.20
2006,07,20,03,23,13.20
2006,07,20,03,24,13.20
2006,07,20,03,25,13.20
2006,07,20,03,26,13.10
2006,07,20,03,27,13.10
2006,07,20,03,28,13.10
2006,07,20,03,29,13.10
2006,07,20,03,30,13.10
2006,07,20,03,31,13.10
2006,07,20,03,32,13.10
2006,07,20,03,33,13.10
2006,07,20,03,34,13.10
2006,07,20,03,35,13.10
2006,07,20,03,36,13.10
2006,07,20,03,37,13.10
2006,07,20,03,38,13.10
2006,07,20,03,39,13.10
2006,07,20,03,40,13.10
2006,07,20,03,41,13.10
2006,07,20,03,42,13.10
2006,07,20,03,43,13.10
2006,07,20,03,44,13.10
2006,07,20,03,45,13.10
2006,07,20,03,46,13.00
2006,07,20,03,47,13.00
2006,07,20,03,48,13.00
2006,07,20,03,49,13.00
2006,07,20,03,50,13.00
2006,07,20,03,51,13.00
2006,07,20,03,52,13.00
2006,07,20,03,53,13.00
2006,07,20,03,54,13.00
2006,07,20,03,55,13.00
2006,07,20,03,56,13.00
2006,07,20,03,57,13.00
2006,07,20,03,58,13.00
2006,07,20,03,59,13.00
2006,07,20,04,00,13.00
2006,07,20,04,01,12.90
2006,07,20,04,02,12.90
2006,07,20,04,03,12.90
2006,07,20,04,04,12.90
2006,07,20,04,05,12.90
2006,07,20,04,06,12.90
2006,07,20,04,07,12.80
2006,07,20,04,08,12.80
2006,07,20,04,09,12.90
2006,07,20,04,10,12.90
2006,07,20,04,11,12.90
2006,07,20,04,12,12.90
2006,07,20,04,13,12.90
2006,07,20,04,14,12.90
2006,07,20,04,15,12.90
2006,07,20,04,16,12.90
2006,07,20,04,17,12.90
2006,07,20,04,18,12.90
2006,07,20,04,19,12.90
2006,07,20,04,20,12.80
2006,07,20,04,21,12.80
2006,07,20,04,22,12.80
2006,07,20,04,23,12.80
2006,07,20,04,24,12.80
2006,07,20,04,25,12.80
2006,07,20,04,26,12.80
2006,07,20,04,27,12.80
2006,07,20,04,28,12.80
2006,07,20,04,29,12.80
2006,07,20,04,30,12.80
2006,07,20,04,31,12.80
2006,07,20,04,32,12.80
2006,07,20,04,33,12.80
2006,07,20,04,34,12.80
2006,07,20,04,35,12.80
2006,07,20,04,36,12.80
2006,07,20,04,37,12.80
2006,07,20,04,38,12.90
2006,07,20,04,39,12.90
2006,07,20,04,40,12.90
2006,07,20,04,41,12.90
2006,07,20,04,42,12.90
2006,07,20,04,43,12.80
2006,07,20,04,44,12.80
2006,07,20,04,45,12.80
2006,07,20,04,46,12.80
2006,07,20,04,47,12.80
2006,07,20,04,48,12.80
2006,07,20,04,49,12.80
2006,07,20,04,50,12.80
2006,07,20,04,51,12.80
2006,07,20,04,52,12.80
2006,07,20,04,53,12.80
2006,07,20,04,54,12.80
2006,07,20,04,55,12.80
2006,07,20,04,56,12.80
2006,07,20,04,57,12.80
2006,07,20,04,58,12.80
2006,07,20,04,59,12.80
2006,07,20,05,00,12.80
2006,07,20,05,01,12.70
2006,07,20,05,02,12.70
2006,07,20,05,03,12.70
2006,07,20,05,04,12.80
2006,07,20,05,05,12.80
2006,07,20,05,06,12.80
2006,07,20,05,07,12.80
2006,07,20,05,08,12.80
2006,07,20,05,09,12.80
2006,07,20,05,10,12.80
2006,07,20,05,11,12.80
2006,07,20,05,12,12.80
2006,07,20,05,13,12.80
2006,07,20,05,14,12.80
2006,07,20,05,15,12.80
2006,07,20,05,16,12.80
2006,07,20,05,17,12.80
2006,07,20,05,18,12.80
2006,07,20,05,19,12.80
2006,07,20,05,20,12.80
2006,07,20,05,21,12.80
2006,07,20,05,22,12.80
2006,07,20,05,23,12.80
2006,07,20,05,24,12.80
2006,07,20,05,25,12.70
2006,07,20,05,26,12.70
2006,07,20,05,27,12.70
2006,07,20,05,28,12.70
2006,07,20,05,29,12.70
2006,07,20,05,30,12.70
2006,07,20,05,31,12.70
2006,07,20,05,32,12.70
2006,07,20,05,33,12.70
2006,07,20,05,34,12.70
2006,07,20,05,35,12.70
2006,07,20,05,36,12.70
2006,07,20,05,37,12.70
2006,07,20,05,38,12.70
2006,07,20,05,39,12.70
2006,07,20,05,40,12.70
2006,07,20,05,41,12.70
2006,07,20,05,42,12.70
2006,07,20,05,43,12.70
2006,07,20,05,44,12.70
2006,07,20,05,45,12.80
2006,07,20,05,46,12.80
2006,07,20,05,47,12.80
2006,07,20,05,48,12.80
2006,07,20,05,49,12.80
2006,07,20,05,50,12.80
2006,07,20,05,51,12.80
2006,07,20,05,52,12.80
2006,07,20,05,53,12.80
2006,07,20,05,54,12.80
2006,07,20,05,55,12.80
2006,07,20,05,56,12.80
2006,07,20,05,57,12.80
2006,07,20,05,58,12.80
2006,07,20,05,59,12.80
2006,07,20,06,00,12.80
2006,07,20,06,01,12.80
2006,07,20,06,02,12.80
2006,07,20,06,03,12.90
2006,07,20,06,04,12.90
2006,07,20,06,05,12.90
2006,07,20,06,06,12.90
2006,07,20,06,07,12.90
2006,07,20,06,08,12.90
2006,07,20,06,09,12.80
2006,07,20,06,10,12.80
2006,07,20,06,11,12.80
2006,07,20,06,12,12.80
2006,07,20,06,13,12.80
2006,07,20,06,14,12.80
2006,07,20,06,15,12.80
2006,07,20,06,16,12.80
2006,07,20,06,17,12.80
2006,07,20,06,18,12.90
2006,07,20,06,19,12.90
2006,07,20,06,20,12.90
2006,07,20,06,21,12.80
2006,07,20,06,22,12.80
2006,07,20,06,23,12.80
2006,07,20,06,24,12.80
2006,07,20,06,25,12.80
2006,07,20,06,26,12.80
2006,07,20,06,27,12.80
2006,07,20,06,28,12.80
2006,07,20,06,29,12.80
2006,07,20,06,30,12.80
2006,07,20,06,31,12.80
2006,07,20,06,32,12.80
2006,07,20,06,33,12.80
2006,07,20,06,34,12.90
2006,07,20,06,35,12.90
2006,07,20,06,36,12.90
2006,07,20,06,37,12.90
2006,07,20,06,38,12.90
2006,07,20,06,39,13.00
2006,07,20,06,40,13.00
2006,07,20,06,41,13.00
2006,07,20,06,42,13.00
2006,07,20,06,43,13.00
2006,07,20,06,44,13.10
2006,07,20,06,45,13.10
2006,07,20,06,46,13.10
2006,07,20,06,47,13.10
2006,07,20,06,48,13.20
2006,07,20,06,49,13.20
2006,07,20,06,50,13.20
2006,07,20,06,51,13.20
2006,07,20,06,52,13.30
2006,07,20,06,53,13.30
2006,07,20,06,54,13.30
2006,07,20,06,55,13.30
2006,07,20,06,56,13.30
2006,07,20,06,57,13.30
2006,07,20,06,58,13.30
2006,07,20,06,59,13.40
2006,07,20,07,00,13.40
2006,07,20,07,01,13.50
2006,07,20,07,02,13.50
2006,07,20,07,03,13.50
2006,07,20,07,04,13.50
2006,07,20,07,05,13.50
2006,07,20,07,06,13.60
2006,07,20,07,07,13.60
2006,07,20,07,08,13.60
2006,07,20,07,09,13.70
2006,07,20,07,10,13.70
2006,07,20,07,11,13.70
2006,07,20,07,12,13.70
2006,07,20,07,13,13.70
2006,07,20,07,14,13.80
2006,07,20,07,15,13.80
2006,07,20,07,16,13.80
2006,07,20,07,17,13.90
2006,07,20,07,18,13.90
2006,07,20,07,19,14.00
2006,07,20,07,20,14.00
2006,07,20,07,21,14.10
2006,07,20,07,22,14.10
2006,07,20,07,23,14.20
2006,07,20,07,24,14.20
2006,07,20,07,25,14.20
2006,07,20,07,26,14.30
2006,07,20,07,27,14.40
2006,07,20,07,28,14.50
2006,07,20,07,29,14.60
2006,07,20,07,30,14.60
2006,07,20,07,31,14.70
2006,07,20,07,32,14.80
2006,07,20,07,33,14.80
2006,07,20,07,34,14.90
2006,07,20,07,35,15.00
2006,07,20,07,36,15.00
2006,07,20,07,37,15.00
2006,07,20,07,38,15.10
2006,07,20,07,39,15.20
2006,07,20,07,40,15.20
2006,07,20,07,41,15.30
2006,07,20,07,42,15.30
2006,07,20,07,43,15.30
2006,07,20,07,44,15.40
2006,07,20,07,45,15.50
2006,07,20,07,46,15.50
2006,07,20,07,47,15.50
2006,07,20,07,48,15.50
2006,07,20,07,49,15.70
2006,07,20,07,50,15.70
2006,07,20,07,51,15.80
2006,07,20,07,52,15.80
2006,07,20,07,53,15.80
2006,07,20,07,54,15.90
2006,07,20,07,55,16.10
2006,07,20,07,56,16.10
2006,07,20,07,57,16.20
2006,07,20,07,58,16.30
2006,07,20,07,59,16.30
2006,07,20,08,00,16.40
2006,07,20,08,01,16.40
2006,07,20,08,02,16.50
2006,07,20,08,03,16.60
2006,07,20,08,04,16.70
2006,07,20,08,05,16.70
2006,07,20,08,06,16.80
2006,07,20,08,07,16.80
2006,07,20,08,08,16.90
2006,07,20,08,09,16.90
2006,07,20,08,10,16.90
2006,07,20,08,11,17.00
2006,07,20,08,12,17.00
2006,07,20,08,13,17.10
2006,07,20,08,14,17.10
2006,07,20,08,15,17.20
2006,07,20,08,16,17.30
2006,07,20,08,17,17.30
2006,07,20,08,18,17.30
2006,07,20,08,19,17.30
2006,07,20,08,20,17.30
2006,07,20,08,21,17.30
2006,07,20,08,22,17.50
2006,07,20,08,23,17.50
2006,07,20,08,24,17.60
2006,07,20,08,25,17.60
2006,07,20,08,26,17.70
2006,07,20,08,27,17.70
2006,07,20,08,28,17.70
2006,07,20,08,29,17.80
2006,07,20,08,30,17.80
2006,07,20,08,31,17.90
2006,07,20,08,32,17.90
2006,07,20,08,33,17.90
2006,07,20,08,34,17.90
2006,07,20,08,35,18.00
2006,07,20,08,36,18.10
2006,07,20,08,37,18.20
2006,07,20,08,38,18.20
2006,07,20,08,39,18.20
2006,07,20,08,40,18.20
2006,07,20,08,41,18.20
2006,07,20,08,42,18.20
2006,07,20,08,43,18.20
2006,07,20,08,44,18.20
2006,07,20,08,45,18.20
2006,07,20,08,46,18.20
2006,07,20,08,47,18.20
2006,07,20,08,48,18.30
2006,07,20,08,49,18.30
2006,07,20,08,50,18.40
2006,07,20,08,51,18.50
2006,07,20,08,52,18.50
2006,07,20,08,53,18.60
2006,07,20,08,54,18.70
2006,07,20,08,55,18.80
2006,07,20,08,56,18.90
2006,07,20,08,57,19.00
2006,07,20,08,58,19.10
2006,07,20,08,59,19.30
2006,07,20,09,00,19.30
2006,07,20,09,01,19.50
2006,07,20,09,02,19.60
2006,07,20,09,03,19.70
2006,07,20,09,04,19.80
2006,07,20,09,05,19.80
2006,07,20,09,06,19.90
2006,07,20,09,07,19.90
2006,07,20,09,08,20.00
2006,07,20,09,09,20.10
2006,07,20,09,10,20.10
2006,07,20,09,11,20.10
2006,07,20,09,12,20.20
2006,07,20,09,13,20.20
2006,07,20,09,14,20.20
2006,07,20,09,15,20.20
2006,07,20,09,16,20.20
2006,07,20,09,17,20.30
2006,07,20,09,18,20.40
2006,07,20,09,19,20.40
2006,07,20,09,20,20.40
2006,07,20,09,21,20.50
2006,07,20,09,22,20.50
2006,07,20,09,23,20.50
2006,07,20,09,24,20.50
2006,07,20,09,25,20.50
2006,07,20,09,26,20.60
2006,07,20,09,27,20.60
2006,07,20,09,28,20.70
2006,07,20,09,29,20.80
2006,07,20,09,30,20.80
2006,07,20,09,31,21.00
2006,07,20,09,32,21.10
2006,07,20,09,33,21.10
2006,07,20,09,34,21.20
2006,07,20,09,35,21.20
2006,07,20,09,36,21.20
2006,07,20,09,37,21.20
2006,07,20,09,38,21.20
2006,07,20,09,39,21.30
2006,07,20,09,40,21.30
2006,07,20,09,41,21.30
2006,07,20,09,42,21.40
2006,07,20,09,43,21.50
2006,07,20,09,44,21.50
2006,07,20,09,45,21.40
2006,07,20,09,46,21.30
2006,07,20,09,47,21.30
2006,07,20,09,48,21.40
2006,07,20,09,49,21.40
2006,07,20,09,50,21.50
2006,07,20,09,51,21.60
2006,07,20,09,52,21.60
2006,07,20,09,53,21.60
2006,07,20,09,54,21.70
2006,07,20,09,55,21.70
2006,07,20,09,56,21.80
2006,07,20,09,57,21.80
2006,07,20,09,58,21.80
2006,07,20,09,59,21.90
2006,07,20,10,00,22.00
2006,07,20,10,01,22.10
2006,07,20,10,02,22.10
2006,07,20,10,03,22.10
2006,07,20,10,04,22.00
2006,07,20,10,05,22.00
2006,07,20,10,06,22.00
2006,07,20,10,07,21.90
2006,07,20,10,08,21.80
2006,07,20,10,09,21.70
2006,07,20,10,10,21.60
2006,07,20,10,11,21.60
2006,07,20,10,12,21.60
2006,07,20,10,13,21.60
2006,07,20,10,14,21.70
2006,07,20,10,15,21.80
2006,07,20,10,16,21.80
2006,07,20,10,17,21.90
2006,07,20,10,18,21.90
2006,07,20,10,19,21.90
2006,07,20,10,20,22.00
2006,07,20,10,21,22.00
2006,07,20,10,22,22.00
2006,07,20,10,23,22.10
2006,07,20,10,24,22.10
2006,07,20,10,25,22.20
2006,07,20,10,26,22.20
2006,07,20,10,27,22.20
2006,07,20,10,28,22.20
2006,07,20,10,29,22.20
2006,07,20,10,30,22.20
2006,07,20,10,31,22.30
2006,07,20,10,32,22.30
2006,07,20,10,33,22.30
2006,07,20,10,34,22.30
2006,07,20,10,35,22.30
2006,07,20,10,36,22.30
2006,07,20,10,37,22.30
2006,07,20,10,38,22.40
2006,07,20,10,39,22.50
2006,07,20,10,40,22.60
2006,07,20,10,41,22.60
2006,07,20,10,42,22.70
2006,07,20,10,43,22.70
2006,07,20,10,44,22.80
2006,07,20,10,45,22.80
2006,07,20,10,46,22.80
2006,07,20,10,47,22.80
2006,07,20,10,48,22.80
2006,07,20,10,49,22.90
2006,07,20,10,50,23.00
2006,07,20,10,51,23.10
2006,07,20,10,52,23.10
2006,07,20,10,53,23.10
2006,07,20,10,54,23.20
2006,07,20,10,55,23.20
2006,07,20,10,56,23.30
2006,07,20,10,57,23.30
2006,07,20,10,58,23.30
2006,07,20,10,59,23.30
2006,07,20,11,00,23.40
2006,07,20,11,01,23.50
2006,07,20,11,02,23.60
2006,07,20,11,03,23.50
2006,07,20,11,04,23.40
2006,07,20,11,05,23.30
2006,07,20,11,06,23.30
2006,07,20,11,07,23.30
2006,07,20,11,08,23.30
2006,07,20,11,09,23.30
2006,07,20,11,10,23.30
2006,07,20,11,11,23.40
2006,07,20,11,12,23.40
2006,07,20,11,13,23.50
2006,07,20,11,14,23.60
2006,07,20,11,15,23.60
2006,07,20,11,16,23.60
2006,07,20,11,17,23.60
2006,07,20,11,18,23.60
2006,07,20,11,19,23.50
2006,07,20,11,20,23.40
2006,07,20,11,21,23.30
2006,07,20,11,22,23.30
2006,07,20,11,23,23.30
2006,07,20,11,24,23.40
2006,07,20,11,25,23.40
2006,07,20,11,26,23.40
2006,07,20,11,27,23.50
2006,07,20,11,28,23.70
2006,07,20,11,29,23.70
2006,07,20,11,30,23.70
2006,07,20,11,31,23.70
2006,07,20,11,32,23.90
2006,07,20,11,33,24.00
2006,07,20,11,34,24.10
2006,07,20,11,35,24.20
2006,07,20,11,36,24.20
2006,07,20,11,37,24.30
2006,07,20,11,38,24.30
2006,07,20,11,39,24.20
2006,07,20,11,40,24.10
2006,07,20,11,41,24.10
2006,07,20,11,42,23.90
2006,07,20,11,43,24.10
2006,07,20,11,44,24.10
2006,07,20,11,45,24.10
2006,07,20,11,46,24.10
2006,07,20,11,47,24.10
2006,07,20,11,48,24.00
2006,07,20,11,49,23.90
2006,07,20,11,50,23.90
2006,07,20,11,51,23.90
2006,07,20,11,52,24.00
2006,07,20,11,53,24.10
2006,07,20,11,54,24.20
2006,07,20,11,55,24.30
2006,07,20,11,56,24.30
2006,07,20,11,57,24.40
2006,07,20,11,58,24.50
2006,07,20,11,59,24.50
2006,07,20,12,00,24.40
2006,07,20,12,01,24.30
2006,07,20,12,02,24.30
2006,07,20,12,03,24.30
2006,07,20,12,04,24.30
2006,07,20,12,05,24.40
2006,07,20,12,06,24.40
2006,07,20,12,07,24.40
2006,07,20,12,08,24.50
2006,07,20,12,09,24.50
2006,07,20,12,10,24.40
2006,07,20,12,11,24.40
2006,07,20,12,12,24.40
2006,07,20,12,13,24.30
2006,07,20,12,14,24.20
2006,07,20,12,15,24.30
2006,07,20,12,16,24.40
2006,07,20,12,17,24.50
2006,07,20,12,18,24.60
2006,07,20,12,19,24.50
2006,07,20,12,20,24.50
2006,07,20,12,21,24.40
2006,07,20,12,22,24.30
2006,07,20,12,23,24.30
2006,07,20,12,24,24.30
2006,07,20,12,25,24.30
2006,07,20,12,26,24.40
2006,07,20,12,27,24.40
2006,07,20,12,28,24.50
2006,07,20,12,29,24.50
2006,07,20,12,30,24.60
2006,07,20,12,31,24.60
2006,07,20,12,32,24.80
2006,07,20,12,33,24.90
2006,07,20,12,34,24.90
2006,07,20,12,35,24.80
2006,07,20,12,36,24.90
2006,07,20,12,37,24.90
2006,07,20,12,38,24.90
2006,07,20,12,39,24.90
2006,07,20,12,40,24.90
2006,07,20,12,41,24.90
2006,07,20,12,42,24.90
2006,07,20,12,43,24.90
2006,07,20,12,44,24.80
2006,07,20,12,45,24.50
2006,07,20,12,46,24.40
2006,07,20,12,47,24.20
2006,07,20,12,48,24.00
2006,07,20,12,49,23.80
2006,07,20,12,50,23.80
2006,07,20,12,51,23.80
2006,07,20,12,52,23.80
2006,07,20,12,53,23.80
2006,07,20,12,54,23.80
2006,07,20,12,55,23.80
2006,07,20,12,56,23.80
2006,07,20,12,57,23.60
2006,07,20,12,58,23.30
2006,07,20,12,59,23.10
2006,07,20,13,00,22.90
2006,07,20,13,01,22.90
2006,07,20,13,02,22.90
2006,07,20,13,03,23.00
2006,07,20,13,04,23.10
2006,07,20,13,05,23.20
2006,07,20,13,06,23.30
2006,07,20,13,07,23.30
2006,07,20,13,08,23.30
2006,07,20,13,09,23.30
2006,07,20,13,10,23.20
2006,07,20,13,11,23.10
2006,07,20,13,12,23.10
2006,07,20,13,13,22.90
2006,07,20,13,14,22.90
2006,07,20,13,15,22.80
2006,07,20,13,16,22.80
2006,07,20,13,17,22.70
2006,07,20,13,18,22.70
2006,07,20,13,19,22.60
2006,07,20,13,20,22.60
2006,07,20,13,21,22.70
2006,07,20,13,22,22.80
2006,07,20,13,23,22.80
2006,07,20,13,24,22.90
2006,07,20,13,25,23.00
2006,07,20,13,26,23.20
2006,07,20,13,27,23.30
2006,07,20,13,28,23.40
2006,07,20,13,29,23.60
2006,07,20,13,30,23.70
2006,07,20,13,31,23.90
2006,07,20,13,32,24.00
2006,07,20,13,33,24.10
2006,07,20,13,34,24.10
2006,07,20,13,35,24.10
2006,07,20,13,36,24.10
2006,07,20,13,37,24.10
2006,07,20,13,38,24.10
2006,07,20,13,39,24.20
2006,07,20,13,40,24.20
2006,07,20,13,41,24.40
2006,07,20,13,42,24.50
2006,07,20,13,43,24.80
2006,07,20,13,44,25.00
2006,07,20,13,45,25.10
2006,07,20,13,46,25.10
2006,07,20,13,47,25.00
2006,07,20,13,48,24.90
2006,07,20,13,49,24.80
2006,07,20,13,50,24.80
2006,07,20,13,51,24.70
2006,07,20,13,52,24.60
2006,07,20,13,53,24.60
2006,07,20,13,54,24.60
2006,07,20,13,55,24.60
2006,07,20,13,56,24.70
2006,07,20,13,57,24.60
2006,07,20,13,58,24.50
2006,07,20,13,59,24.40
2006,07,20,14,00,24.20
2006,07,20,14,01,24.20
2006,07,20,14,02,24.10
2006,07,20,14,03,24.10
2006,07,20,14,04,23.90
2006,07,20,14,05,23.80
2006,07,20,14,06,23.80
2006,07,20,14,07,23.80
2006,07,20,14,08,23.80
2006,07,20,14,09,23.70
2006,07,20,14,10,23.60
2006,07,20,14,11,23.40
2006,07,20,14,12,23.30
2006,07,20,14,13,23.30
2006,07,20,14,14,23.30
2006,07,20,14,15,23.30
2006,07,20,14,16,23.30
2006,07,20,14,17,23.40
2006,07,20,14,18,23.50
2006,07,20,14,19,23.50
2006,07,20,14,20,23.40
2006,07,20,14,21,23.30
2006,07,20,14,22,23.20
2006,07,20,14,23,23.10
2006,07,20,14,24,22.90
2006,07,20,14,25,22.90
2006,07,20,14,26,22.80
2006,07,20,14,27,22.90
2006,07,20,14,28,22.90
2006,07,20,14,29,23.10
2006,07,20,14,30,23.20
2006,07,20,14,31,23.30
2006,07,20,14,32,23.30
2006,07,20,14,33,23.40
2006,07,20,14,34,23.60
2006,07,20,14,35,23.60
2006,07,20,14,36,23.70
2006,07,20,14,37,23.70
2006,07,20,14,38,23.70
2006,07,20,14,39,23.80
2006,07,20,14,40,24.00
2006,07,20,14,41,24.10
2006,07,20,14,42,24.10
2006,07,20,14,43,24.10
2006,07,20,14,44,24.10
2006,07,20,14,45,24.10
2006,07,20,14,46,24.20
2006,07,20,14,47,24.20
2006,07,20,14,48,24.30
2006,07,20,14,49,24.40
2006,07,20,14,50,24.50
2006,07,20,14,51,24.50
2006,07,20,14,52,24.60
2006,07,20,14,53,24.60
2006,07,20,14,54,24.70
2006,07,20,14,55,24.80
2006,07,20,14,56,24.80
2006,07,20,14,57,24.90
2006,07,20,14,58,24.90
2006,07,20,14,59,24.90
2006,07,20,15,00,24.90
2006,07,20,15,01,24.90
2006,07,20,15,02,25.10
2006,07,20,15,03,25.10
2006,07,20,15,04,25.10
2006,07,20,15,05,25.10
2006,07,20,15,06,25.10
2006,07,20,15,07,25.10
2006,07,20,15,08,25.20
2006,07,20,15,09,25.30
2006,07,20,15,10,25.40
2006,07,20,15,11,25.40
2006,07,20,15,12,25.60
2006,07,20,15,13,25.80
2006,07,20,15,14,26.00
2006,07,20,15,15,26.20
2006,07,20,15,16,26.40
2006,07,20,15,17,26.50
2006,07,20,15,18,26.70
2006,07,20,15,19,26.90
2006,07,20,15,20,27.00
2006,07,20,15,21,27.10
2006,07,20,15,22,27.20
2006,07,20,15,23,27.20
2006,07,20,15,24,27.30
2006,07,20,15,25,27.30
2006,07,20,15,26,27.40
2006,07,20,15,27,27.60
2006,07,20,15,28,27.60
2006,07,20,15,29,27.60
2006,07,20,15,30,27.60
2006,07,20,15,31,27.70
2006,07,20,15,32,27.80
2006,07,20,15,33,27.80
2006,07,20,15,34,28.00
2006,07,20,15,35,28.20
2006,07,20,15,36,28.30
2006,07,20,15,37,28.20
2006,07,20,15,38,28.00
2006,07,20,15,39,27.70
2006,07,20,15,40,27.40
2006,07,20,15,41,27.40
2006,07,20,15,42,26.90
2006,07,20,15,43,26.70
2006,07,20,15,44,26.20
2006,07,20,15,45,25.90
2006,07,20,15,46,25.70
2006,07,20,15,47,25.40
2006,07,20,15,48,25.30
2006,07,20,15,49,25.20
2006,07,20,15,50,25.00
2006,07,20,15,51,24.80
2006,07,20,15,52,24.80
2006,07,20,15,53,24.70
2006,07,20,15,54,24.60
2006,07,20,15,55,24.50
2006,07,20,15,56,24.50
2006,07,20,15,57,24.50
2006,07,20,15,58,24.50
2006,07,20,15,59,24.50
2006,07,20,16,00,24.40
2006,07,20,16,01,24.30
2006,07,20,16,02,24.40
2006,07,20,16,03,24.50
2006,07,20,16,04,24.50
2006,07,20,16,05,24.60
2006,07,20,16,06,24.70
2006,07,20,16,07,24.80
2006,07,20,16,08,24.80
2006,07,20,16,09,24.80
2006,07,20,16,10,24.80
2006,07,20,16,11,24.80
2006,07,20,16,12,24.80
2006,07,20,16,13,24.80
2006,07,20,16,14,24.90
2006,07,20,16,15,25.00
2006,07,20,16,16,25.10
2006,07,20,16,17,25.20
2006,07,20,16,18,25.20
2006,07,20,16,19,25.20
2006,07,20,16,20,25.30
2006,07,20,16,21,25.40
2006,07,20,16,22,25.30
2006,07,20,16,23,25.30
2006,07,20,16,24,25.30
2006,07,20,16,25,25.40
2006,07,20,16,26,25.40
2006,07,20,16,27,25.40
2006,07,20,16,28,25.50
2006,07,20,16,29,25.50
2006,07,20,16,30,25.60
2006,07,20,16,31,25.60
2006,07,20,16,32,25.70
2006,07,20,16,33,25.70
2006,07,20,16,34,25.80
2006,07,20,16,35,25.90
2006,07,20,16,36,25.90
2006,07,20,16,37,25.90
2006,07,20,16,38,26.00
2006,07,20,16,39,26.10
2006,07,20,16,40,26.10
2006,07,20,16,41,26.20
2006,07,20,16,42,26.30
2006,07,20,16,43,26.40
2006,07,20,16,44,26.40
2006,07,20,16,45,26.40
2006,07,20,16,46,26.40
2006,07,20,16,47,26.40
2006,07,20,16,48,26.50
2006,07,20,16,49,26.60
2006,07,20,16,50,26.60
2006,07,20,16,51,26.50
2006,07,20,16,52,26.40
2006,07,20,16,53,26.20
2006,07,20,16,54,26.00
2006,07,20,16,55,25.90
2006,07,20,16,56,25.90
2006,07,20,16,57,25.70
2006,07,20,16,58,25.60
2006,07,20,16,59,25.60
2006,07,20,17,00,25.60
2006,07,20,17,01,25.50
2006,07,20,17,02,25.50
2006,07,20,17,03,25.40
2006,07,20,17,04,25.40
2006,07,20,17,05,25.30
2006,07,20,17,06,25.40
2006,07,20,17,07,25.40
2006,07,20,17,08,25.50
2006,07,20,17,09,25.50
2006,07,20,17,10,25.50
2006,07,20,17,11,25.50
2006,07,20,17,12,25.50
2006,07,20,17,13,25.50
2006,07,20,17,14,25.40
2006,07,20,17,15,25.40
2006,07,20,17,16,25.40
2006,07,20,17,17,25.30
2006,07,20,17,18,25.10
2006,07,20,17,19,25.10